Погода в Вологде

Погода в Вологде : погода сейчас, прогноз погоды и архив. Всё, что Вы хотите узнать о погоде в Вологде!

Хотите узнать прогноз погоды в Вологде? Тогда Вам сюда: Погода в Вологде

Поиск расширенной информации на нашем сайте:

Другие новости

Новости СМИ2

Главная страница сайта

Новости сайта

03.07.2017

Напоминаем, что на нашем специализированном сайте Метеоцентр.Азия вы можете получить высокодетализированные автоматические прогнозы погоды по пунктам России, СНГ и мира в авиационном формате (включающие направление и скорость ветра, видимость, явления погоды, количество и форму облачности, нижнюю и верхнюю границу облачности).


Погода в Вологде - сегодня

Время (UTC), дата Ветер
(°,м/с) 
Видим.   Явления Облачность Т
(°С)
Тd
(°С)
f(%) Тe
(°С)
Pmin
(гПа)
dP
(гПа)
Po
(мм)
O2
(г/м3)
Тmin Tmax R s Состояние
почвы
09 16.06.18 тихо ()   20000 м  {ливн. осадки}  4/3 1000 м средняя 
[Cu hum|Ac trans]
+20.8 +8.9 46 +21  1020.8  -0.2  754  281           
12 16.06.18 320 (СЗ) 20000 м  {ливн. осадки}  8/8 1000 м 
[Cu med, cong]
+23.4 +8.6 39 +23  1019.8  -0.9  753  278           
18 16.06.18 тихо ()   20000 м    3/1 600 м верхняя 
[Sc diur, vesp|Ci fib]
+17.1 +13 77 +22  1019.3  -0.2  753  283           
21 16.06.18 010 (С) 27  <0100 м    3/3 900 м средняя 
[Sc|Ac und]
+11.1   1019.9  0.4  753             
00 17.06.18 080 (В) 20000 м    9/9 960 м верхняя 
[Sc|Ci fib]
+11.9 +10.7 92 +15  1020.6  0.6  754  289           
03 17.06.18 тихо ()   20000 м    9/3 600 м верхняя 
[Sc|Ci fib]
+14.8 +11.2 79 +17  1020.6  0.2  754  286  +11.7        сухая 
06 17.06.18 310 (СЗ) 20000 м    9/3 2000 м средняя, верхняя 
[Ac trans|Ci fib]
+22.3 +12.5 54 +27  1020  -0.2  754  278           
09 17.06.18 290 (З) 20000 м    9/6 600 м кучево-дожд., средняя, верхняя 
[Cb cap|Ac trans|Ci fib]
+24.6 +10.9 42 +27  1019.3  -0.6  753  276           
12 17.06.18 300 (СЗ) 20000 м    9/6 600 м кучево-дожд., средняя, верхняя 
[Cb cap|Ac trans|Ci fib]
+26.1 +6.7 29 +26  1018.2  -0.9  752  276           
18 17.06.18 тихо ()   20000 м    3/3 2000 м средняя 
[Ac trans]
+19.5 +13.3 67 +25  1017.9  752  280           
21 17.06.18 тихо ()   20000 м    1/1 2000 м средняя 
[Ac trans]
+13 +11.7 92 +16  1018.4  752  287           
00 18.06.18 тихо ()   20000 м    3/3 2000 м средняя 
[Ac trans]
+11.1 +10.1 94 +12  1018.5  0.1  752  289           
06 18.06.18 160 (Ю) 20000 м    ясно 
+25 +11.8 44 +29  1016.8  -0.6  751  275           
09 18.06.18 220 (ЮЗ) 20000 м    6/6 600 м 
[Cu med, cong]
+27.2 +9.6 33 +28  1015.8  -0.9  751  273           
12 18.06.18 210 (ЮЗ) 20000 м    6/4 600 м верхняя 
[Cu med, cong|Ci fib]
+27.1 +7.6 29 +27  1014.7  -1.1  750  274           
18 18.06.18 180 (Ю) 20000 м    6/3 2000 м средняя, верхняя 
[Ac trans|Ci fib]
+18.8 +14.5 76 +28  1013.2  -1  748  279           
21 18.06.18 210 (ЮЗ) 4000 м  дымка  6/3 2000 м средняя, верхняя 
[Ac trans|Ci fib]
+14.2 +12.9 92 +20  1013  -0.4  748  284           
00 19.06.18 200 (Ю) 20000 м    6/3 2000 м средняя, верхняя 
[Ac trans|Ci fib]
+13.6 +11.8 89 +18  1012.3  -0.8  748  285           
03 19.06.18 200 (Ю) 20000 м    8/3 2000 м средняя, верхняя 
[Ac trans|Ci fib]
+17.5 +12.3 72 +23  1010.9  -1  747  280  +13        сухая 
06 19.06.18 220 (ЮЗ) 20000 м    9/8 900 м кучево-дожд., средняя, верхняя 
[Cb cap|Ac trans|Ci fib]
+22.8 +13.9 57 +30  1009.8  -0.9  746  275           
12 19.06.18 220 (ЮЗ) 20000 м  {гроза, ливн. осадки}  9/0 верхняя 
[Cs]
+24.3 +12.6 48 +29  1006.7  -2.3  744  273           
15 19.06.18 200 (Ю) 20000 м  {гроза, ливн. осадки}  10/10 960 м 
[Sc]
+18.9 +13.9 73 +27  1005.1  -1.9  742  277    +25.4     
18 19.06.18 210 (ЮЗ) 20000 м  {гроза, ливн. осадки}  9/9 600 м кучево-дожд. 
[Cb cap]
+17.3 +14.1 81 +25  1004  -1.1  742  278           
21 19.06.18 210 (ЮЗ) 20000 м    9/9 600 м кучево-дожд. 
[Cb cap]
+16.1 +14.6 91 +25  1001.6  -2.4  740  278           
03 20.06.18 270 (З) 20000 м  {ливн. осадки}  9/9 600 м кучево-дожд. 
[Cb cap]
+12.2 +8.5 78 +12  1000.6  0.4  739  283  +12      влажная 
Время (UTC), дата Ветер
(°,м/с) 
Видим.   Явления Облачность Т
(°С)
Тd
(°С)
f(%) Тe
(°С)
Pmin
(гПа)
dP
(гПа)
Po
(мм)
O2
(г/м3)
Тmin Tmax R s Состояние
почвы

Для получения пояснительной информации подведите курсор к названию столбца.

ПОГОДА в Вологде - архив

Всё, что Вы хотите узнать о погоде в Вологде - удобно и подробно!

Выберите нужную дату (начиная с 1 января 2015* года) и нажмите кнопку "Найти".
Будут отображены архивные сводки погоды по пункту Вологда, начиная с указанной даты.


Отображать данные в формате CSV (для использования в таблицах Excel)


Внимание! Наш архив погоды предназначен исключительно для личного некоммерческого использования в познавательных целях. Если Вам необходимы официальные справки о состоянии погоды (для производственных, юридических, коммерческих и т.п. целей), обращайтесь в органы Росгидромета.

*Примечание: данная дата относится к архиву по метеостанциям СССР (Россия, СНГ, Балтия).
Архив по метеостанциям Зарубежной Европы и Азии (кроме Китая) хранится 10 дней, по другим регионам земного шара (Китай, Африка, Америка, Австралия, Океания) - 1 день.

Вологда - район местоположения метеостанции


Название, широта, долгота, высота метеостанции:
Вологда (город) 59.3°ш. 39.9°д. 130 м над ур. моря [Российская Федерация]

Дополнительная информация

В oтличие oт бoльшинства пoгoдных сайтoв мы публикуем пoдрoбную метеoинфoрмацию в детальнoм прoфессиoнальнoм фoрмате.

Характеристики температуры и влажнoсти вoздуха измеряются на высoте 2 м в тени вдали oт зданий и деревьев.
Скoрoсть ветра измеряется на высoте 10 м (на урoвне рoста челoвека скoрoсть ветра ниже в 1.5-2 раза). Если метеoстанция нахoдится в гoрoде или в лесу, тo скoрoсть ветра занижена на 2-4 м/с пo сравнению с oткрытым местoм. Скoрoсть ветра над акватoриями крупных рек и oзёр, а также на вершинах хoлмoв на 2-5 м/с выше, чем в oбычных услoвиях.
Атмoсфернoе давление в разных тoчках местнoсти мoжет значительнo oтличаться oт давления на метеoстанции, в зависимoсти oт услoвий рельефа (при пoдъёме на 10 м давление пoнижается примернo на 1 мм рт.ст.).